TimeEDT,TemperatureF,Dew PointF,Humidity,Sea Level PressureIn,VisibilityMPH,Wind Direction,Wind SpeedMPH,Gust SpeedMPH,PrecipitationIn,Events,Conditions,WindDirDegrees,DateUTC
12:54 AM,50.0,42.1,74,30.31,-9999.0,ENE,10.4,-,N/A,,Unknown,70,2012-10-09 04:54:00
1:54 AM,50.0,42.1,74,30.32,-9999.0,East,10.4,-,N/A,,Unknown,80,2012-10-09 05:54:00
2:54 AM,50.0,42.1,74,30.29,-9999.0,ENE,12.7,-,N/A,,Unknown,70,2012-10-09 06:54:00
3:54 AM,51.1,42.1,71,30.28,-9999.0,ENE,12.7,-,N/A,,Unknown,70,2012-10-09 07:54:00
4:54 AM,51.1,43.0,74,30.27,-9999.0,East,12.7,-,N/A,,Unknown,80,2012-10-09 08:54:00
5:54 AM,50.0,48.0,93,30.27,-9999.0,East,11.5,-,N/A,,Unknown,80,2012-10-09 09:54:00
6:54 AM,50.0,46.9,89,30.28,-9999.0,East,12.7,-,N/A,,Unknown,90,2012-10-09 10:54:00
7:54 AM,51.1,46.0,83,30.27,-9999.0,East,13.8,-,N/A,,Unknown,90,2012-10-09 11:54:00
8:54 AM,52.0,46.9,83,30.29,-9999.0,East,10.4,-,N/A,,Unknown,90,2012-10-09 12:54:00
9:54 AM,52.0,46.9,83,30.28,-9999.0,East,11.5,18.4,N/A,,Unknown,90,2012-10-09 13:54:00
10:54 AM,54.0,46.9,77,30.27,-9999.0,East,11.5,20.7,N/A,,Unknown,90,2012-10-09 14:54:00
11:54 AM,55.9,45.0,67,30.27,-9999.0,East,9.2,-,N/A,,Unknown,90,2012-10-09 15:54:00
12:54 PM,54.0,46.9,77,30.25,-9999.0,ENE,12.7,20.7,N/A,,Unknown,70,2012-10-09 16:54:00
1:54 PM,52.0,48.9,89,30.23,-9999.0,ENE,11.5,20.7,N/A,,Unknown,60,2012-10-09 17:54:00
2:54 PM,53.1,48.0,83,30.23,-9999.0,ENE,11.5,21.9,N/A,,Unknown,70,2012-10-09 18:54:00
3:54 PM,53.1,46.0,77,30.21,-9999.0,ENE,16.1,23.0,N/A,,Unknown,70,2012-10-09 19:54:00
4:54 PM,53.1,46.0,77,30.20,-9999.0,ENE,16.1,25.3,N/A,,Unknown,70,2012-10-09 20:54:00
5:54 PM,52.0,45.0,77,30.20,-9999.0,ENE,12.7,24.2,N/A,,Unknown,70,2012-10-09 21:54:00
6:54 PM,52.0,43.0,71,30.20,-9999.0,ENE,15.0,20.7,N/A,,Unknown,70,2012-10-09 22:54:00
7:54 PM,51.1,43.0,74,30.19,-9999.0,ENE,9.2,17.3,N/A,,Unknown,60,2012-10-09 23:54:00
8:54 PM,52.0,41.0,66,30.19,-9999.0,ENE,9.2,-,N/A,,Unknown,60,2012-10-10 00:54:00
9:54 PM,52.0,44.1,74,30.18,-9999.0,NE,9.2,-,N/A,,Unknown,50,2012-10-10 01:54:00
10:54 PM,52.0,46.0,80,30.17,-9999.0,NE,8.1,-,N/A,,Unknown,50,2012-10-10 02:54:00
11:54 PM,52.0,46.9,83,30.15,-9999.0,NE,8.1,-,N/A,,Unknown,50,2012-10-10 03:54:00